Regional Weather Roundup
Issued by NWS

Home | Current Version | Previous Version | Graphics & Text | Print | Product List | Glossary On
Versions: 1 2 3 4 5 6 7 8 9 10 11 12 13 14 15 16 17 18 19 20 21 22 23 24 25 26 27 28 29 30 31 32 33 34 35 36 37 38 39 40 41 42 43 44 45 46 47 48 49 50
000
ASUS43 KMKX 281600
RWRWI

WISCONSIN REGIONAL WEATHER ROUNDUP
NATIONAL WEATHER SERVICE MILWAUKEE/SULLIVAN WI
1100 AM CDT WED JUN 28 2017

NOTE: "FAIR" INDICATES FEW OR NO CLOUDS BELOW 12,000 FEET WITH NO
SIGNIFICANT WEATHER AND/OR OBSTRUCTIONS TO VISIBILITY.

WIZ001-002-006>008-014>016-023>028-281700-
NORTHWEST WISCONSIN

CITY           SKY/WX    TMP DP  RH WIND       PRES   REMARKS
SUPERIOR ARPT  NOT AVBL
ASHLAND        CLOUDY    65  56  72 S3        29.68F
HAYWARD        RAIN      60  56  86 MISG      29.67F FOG
SIREN          LGT RAIN  60  59  95 S9        29.63S
CUMBERLAND     DRIZZLE   59  55  88 SE9       29.67F
RICE LAKE      RAIN      60  58  94 SE8       29.69F
CHETEK         RAIN      60  59  97 SE5       29.69S
LADYSMITH      LGT RAIN  61  57  86 SE10      29.72F
EAU CLAIRE     NOT AVBL
MENOMONIE      RAIN      66  64  96 S16G24    29.67F
NEW RICHMOND   RAIN      66  64  94 S15G21    29.64F
OSCEOLA        LGT RAIN  66  66 100 S14       29.65F
$$

WIZ003>005-009-010-017-018-281700-
NORTH CENTRAL WISCONSIN

CITY           SKY/WX    TMP DP  RH WIND       PRES   REMARKS
MANITOWISH WTR CLOUDY    60  56  89 S9        29.75F
ARBOR VITAE    CLOUDY    59  54  82 S9        29.76F
WOODRUFF       CLOUDY    59  54  82 S9        29.76F
RHINELANDER    CLOUDY    59  58  96 VRB7      29.76F
EAGLE RIVER    LGT RAIN  57  56  95 CALM      29.77F
LAND O LAKES   CLOUDY    61  54  76 S8        29.78F
PHILLIPS       CLOUDY    61  56  83 S7        29.74F
TOMAHAWK       NOT AVBL
MEDFORD        RAIN      59  56  89 S10       29.76R
MERRILL        CLOUDY    60  58  92 S5        29.78R
$$

WIZ029-030-035-036-043>047-281700-
CENTRAL WISCONSIN

CITY           SKY/WX    TMP DP  RH WIND       PRES   REMARKS
WAUSAU         LGT RAIN  61  58  90 S10       29.77F
MOSINEE        CLOUDY    61  57  88 S12       29.79R
MARSHFIELD     LGT RAIN  62  58  86 S8        29.74F
STEVENS POINT  CLOUDY    60  58  94 SE6       29.78R
WAUPACA        CLOUDY    65  59  80 SE9       29.77F
WAUTOMA        LGT RAIN  63  60  90 S7        29.79R
WISC RAPIDS    LGT RAIN  63  60  90 S8        29.78R
CAMP DOUGLAS   NOT AVBL
$$

WIZ011>013-019>022-031-037>040-048>050-281700-
NORTHEAST WISCONSIN

CITY           SKY/WX    TMP DP  RH WIND       PRES   REMARKS
ANTIGO         CLOUDY    58  56  92 SE8       29.77F
SHAWANO        CLOUDY    66  57  72 SE9       29.79F
OCONTO         CLOUDY    63  58  83 S7        29.83F
STURGEON BAY   LGT RAIN  60  55  83 S13       29.86S
GREEN BAY      CLOUDY    66  61  84 S15       29.82F
MANITOWOC      HVY RAIN  59  54  82 S12       29.89F
APPLETON       NOT AVBL
CLINTONVILLE   LGT RAIN  63  55  77 S14       29.77F
OSHKOSH        CLOUDY    66  57  72 S14G28    29.79F
$$

WIZ032>034-041-042-053>061-281700-
SOUTHWEST WISCONSIN

CITY           SKY/WX    TMP DP  RH WIND       PRES   REMARKS
LA CROSSE      LGT RAIN  69  66  90 S13       29.72S
SPARTA         LGT RAIN  64  62  94 S10G18    29.74S
VIROQUA        CLOUDY    64  64 100 S14       29.76F
BOSCOBEL       LGT RAIN  68  64  87 S8        29.78F
PRAIRIE DU CHI LGT RAIN  67  64  91 S6        29.77S
PLATTEVILLE    CLOUDY    66  66 100 S20       29.83S
$$

WIZ056-057-062-063-064-067-068-281700-
SOUTH CENTRAL WISCONSIN

CITY           SKY/WX    TMP DP  RH WIND       PRES   REMARKS
REEDSBURG      DRIZZLE   63  63 100 S18       29.79R
BARABOO/DELLS  CLOUDY    63  60  91 SW17      29.80R
LONE ROCK      LGT RAIN  66  62  87 S10       29.78F
MINERAL POINT  LGT RAIN  64  64 100 S14       29.81F
MADISON        LGT RAIN  63  61  93 S13G24    29.82F
MIDDLETON      CLOUDY    64  63  94 SW14G23   29.81F
WATERTOWN      LGT RAIN  61  61 100 S13G18    29.86F
MONROE         CLOUDY    63  61  94 S21G28    29.86F
JANESVILLE     LGT RAIN  63  63 100 SE18      29.84F
$$

WIZ051-052-058>065-066-070>072-281700-
SOUTHEAST WISCONSIN

CITY           SKY/WX    TMP DP  RH WIND       PRES   REMARKS
MILWAUKEE      LGT RAIN  65  59  81 S10       29.93F
WAUKESHA       LGT RAIN  61  57  88 S9        29.92F
MILWAUKEE/TIMM LGT RAIN  63  57  82 S15G21    29.92F
RACINE         LGT RAIN  67  55  65 S16G29    29.96S
KENOSHA        LGT RAIN  65  56  72 S18G24    29.96S
FOND DU LAC    CLOUDY    66  57  72 S24G33    29.79F
SHEBOYGAN      LGT RAIN  63  60  90 SE12      29.88F
WEST BEND      CLOUDY    63  59  88 S10G17    29.89F
JUNEAU         LGT RAIN  63  58  82 S21       29.85F
$$

LSZ147-162-281700-
LAKE SUPERIOR

STATION/POSITION TIME  TEMP    WIND        PRES    WAVE
                       AIR SEA DIR/SP/G            HT/PER
                 (UTC) (F)     (DEG/KT/KT) (MB)    (FT/S)
W MID LAKE BUOY  1450   46 39   90/  8/ 10 1007.0F   1
DEVILS ISLAND    1500   53      70/ 11/ 12 1005.7F
SAXON HARBOR     1540   65     200/  7/ 12 1005.1S
$$

LMZ867-665-643>646-281700-
LAKE MICHIGAN

STATION/POSITION TIME  TEMP    WIND        PRES    WAVE
                       AIR SEA DIR/SP/G            HT/PER
                 (UTC) (F)     (DEG/KT/KT) (MB)    (FT/S)
CHAMBERS ISLAND  1540   65     150/ 10/ 15 1010.5F
S GREEN BAY BUOY 1530   61     180/ 14/ 16 1010.3F
N MID LAKE BUOY  1450   58 56  180/ 14/ 16 1013.4F   3/ 5
NORTHPORT PIER   1530   64     150/ 12/ 21 1011.2F
KEWAUNEE LAKESHO 1530   57     180/ 17/ 19 1011.2F
SHEBOYGAN LAKESH 1500   58     190/ 19/ 21 1012.6F
PORT WASHINGTON  1530   57     190/  6/ 11 1013.5F
ATWATER BUOY     1409   60 55  160/ 14/ 16 1013.5F
MILWAUKEE LAKESH 1530   63     210/ 16/ 20   N/A
S MID LAKE BUOY  1450   63 61  170/ 17/ 21 1015.3F   4/ 5
KENOSHA   LAKESH 1500   68     190/ 14/ 17 1014.2
$$

TC  - TEMPERATURE IN CELSIUS
VSB - VISIBILITY IN STATUTE MILES
WCI - WIND CHILL INDEX
HX  - HEAT INDEX




USA.gov is the U.S. government's official web portal to all federal, state and local government web resources and services.